User: anonymous
Location: NJAA Observatory
(40.6819°N, 74.8979°W)
Time: 01:59:10
(UTC-04:00)
Language:

ALOS - Orbit

View from above orbital plane
View from above orbital plane
View from above satellite
View from above satellite

Ground track
Ground track

The orbit data is extracted from the following two-line orbital elements,

1 28931U 06002A   14273.34689402  .00001258  00000-0  26367-3 0   628
2 28931 097.9690 327.6835 0001550 126.2211 233.9085 14.61316502462680
Epoch (UTC): 30 September 2014 08:19:31
Eccentricity: 0.0001550
inclination: 97.9690°
perigee height: 688 km
apogee height: 690 km
right ascension of ascending node: 327.6835°
argument of perigee: 126.2211°
revolutions per day: 14.61316502
mean anomaly at epoch: 233.9085°
orbit number at epoch: 46268

The dashed part of the orbit path shows where the satellite is in the earth's shadow,  

DLR